STARLINK-35500, 66093

Orbit data source: Space-Track

STARLINK-35500, 66093 is a payload satellite owned by SpaceX/Seattle (US) in LEO that was launched on Sun, 19 Oct 2025 UTC via an FALCON 9 launch vehicle from the Air Force Western Test Range (AFWTR). Payload-class satellites include a variety of spacecraft equipped with specific instruments for various scientific and technological missions. These include communications satellites like Starlink; space stations such as the ISS; scientific satellites like the Hubble; Earth observation satellites from companies like Planet Labs, Umbra, and HawkEye 360; GPS; miniature CubeSats for education and research; and military/defense satellites.

Loading next visibility...
Identifier
66093, 2025-236H
Orbit
LEO
Country
Flag of USUS
Related business
Manufacturer
SpaceX/Seattle
Mission
Operational Commercial Communications
Bus & Motor
STARLINK V2MO, Unknown motor
Mass
575 kg wet, ~530 kg dry
Launch date (UTC)
2025-10-19 (6 months ago)
Launch vehicle
FALCON 9
Launch site
Air Force Western Test Range (AFWTR)
Object type
Payload
Rocket body
Debris
Shape & HBR
Box + 2 Pan, 17.7 m
Radar Cross Section
36.964 m²

Expand to show TLE details & history
Last TLE update: 6 hours ago

TLE from 6 hours ago
0 STARLINK-35500
1 66093U 25236H   26095.52101207  .00021822  00000-0  74734-3 0  9995
2 66093  53.1597 339.1698 0001379  98.8540 261.2617 15.30174233 27057
Epoch: 2026-04-05T12:30Z
TLE epoch observation values (Epoch: 2026-04-05T12:30:15.442Z)
Latitude
-0.00003°
Longitude
-42.21981°
Altitude
476.335 km
Speed
7.629 km/s
True Right ascension
22h 36m 40s
True Declination
0° 00' 00"
Sunlit
Object was in daylight at epoch
Visualization orbit readout
Latitude
Unknown
Longitude
Unknown
Altitude
Unknown
Speed
Unknown
Apparent Right ascension
Unknown
Apparent Declination
Unknown
Sunlit
N/A
Visualization observer readout
Local Sidereal Time
00:10:32
Azimuth
Unknown
Elevation
Unknown
Doppler factor
Unknown
Orbital elements
Apogee altitude
476.494 km
Perigee altitude
474.603 km
Semi-major axis
6,853.685 km
Eccentricity
0.00014
Inclination
53.1597°
RAAN
339.1698°
Arg. of periapsis
98.854°
True anomaly
261.24608°
Mean anomaly
261.2617°
Eccentric anomaly
261.25389°
Mean motion
3.82522 °/min
Orbital period
94.11 mins
BSTAR
0.00074734
Loading maneuver chart data...
Computing Atmospheric mass density...
Loading historical data...
Loading historical data...
Loading historical data...
Loading historical data...
Loading historical data...
Loading historical data...
Loading historical data...

Documentation

Showing up to 5 results
|